Regional Weather Roundup
Issued by NWS

Home | Current Version | Previous Version | Graphics & Text | Print | Product List | Glossary On
Versions: 1 2 3 4 5 6 7 8 9 10 11 12 13 14 15 16 17 18 19 20 21 22 23 24 25 26 27
000
ASUS45 KPSR 290910
RWRAZ

ARIZONA HOURLY REGIONAL WEATHER ROUNDUP
NATIONAL WEATHER SERVICE PHOENIX AZ
200 AM MST SUN MAY 29 2016

NOTE: FAIR INDICATES FEW OR NO CLOUDS BELOW 12,000 FEET WITH NO
SIGNIFICANT WEATHER AND/OR OBSTRUCTIONS TO VISIBILITY.

AZZ001>003-036-291000-
NORTHWEST ARIZONA

CITY           SKY/WX    TMP DP  RH WIND       PRES   REMARKS
KINGMAN        CLEAR     61  28  28 MISG      29.96S
$$

AZZ004>008-015-016-018-291000-
NORTH CENTRAL ARIZONA

CITY           SKY/WX    TMP DP  RH WIND       PRES   REMARKS
GRAND CANYON   CLEAR     37  25  61 CALM      30.15F
WILLIAMS       CLEAR     41  21  45 S8        30.22S
PRESCOTT       CLEAR     55  25  31 S6        30.06S
FLAGSTAFF      CLEAR     37  20  50 CALM      30.17F
PAYSON         CLEAR     57  23  26 CALM      30.09S
PAGE           PTCLDY    65  29  25 S5        30.00R
$$

AZZ009>014-017-291000-
NORTHEAST ARIZONA

CITY           SKY/WX    TMP DP  RH WIND       PRES   REMARKS
WINSLOW        CLEAR     49  19  30 CALM      30.06R
SAINT JOHNS    CLEAR     53  18  25 VRB3      30.11R
WINDOW ROCK    CLEAR     46  26  45 CALM      30.16S
SHOW LOW       CLEAR     48  18  29 SE8       30.17S
$$

AZZ023-291000-
GREATER PHOENIX AREA

CITY           SKY/WX    TMP DP  RH WIND       PRES   REMARKS
PHOENIX        CLEAR     79  34  19 NW8       29.86R
BUCKEYE        CLEAR     70  28  21 NW3       29.88S
LUKE AFB       CLEAR     78  34  20 CALM      29.86R
DEER VALLEY    CLEAR     75  31  19 W5        29.88S
SCOTTSDALE     CLEAR     77  33  20 NW3       29.90S
MESA-GATEWAY   CLEAR     72  32  23 CALM      29.90S HAZE
$$

AZZ027-028-291000-
SOUTHWEST MARICOPA COUNTY AND PINAL COUNTY

CITY           SKY/WX    TMP DP  RH WIND       PRES   REMARKS
CASA GRANDE    CLEAR     70  30  23 NE7       29.90S
GILA BEND      FAIR      71  30  22 CALM      29.85S
$$

AZZ503-504-507>509-291000-
SOUTHEAST ARIZONA

CITY           SKY/WX    TMP DP  RH WIND       PRES   REMARKS
TUCSON         CLEAR     66  19  16 CALM      29.98S
DAVIS-MONTHAN  CLEAR     64  19  17 SE7       29.96S
NOGALES        CLEAR     57  16  20 CALM      30.03S
SIERRA VISTA   CLEAR     60   8  12 W1        30.08S
DOUGLAS        CLEAR     53   6  15 E7        30.05F
SAFFORD        CLEAR     64  17  16 E5        29.96R
$$

AZZ020-021-025-026-031-291000-
SOUTHWEST ARIZONA

CITY           SKY/WX    TMP DP  RH WIND       PRES   REMARKS
YUMA           CLEAR     74  41  30 SE9       29.80S
$$

CAZ031-033-041-043-047-048-061-291000-
SOUTHERN CALIFORNIA

CITY           SKY/WX    TMP DP  RH WIND       PRES   REMARKS
DOWNTOWN L.A.  CLOUDY    61  53  75 CALM      29.96S
L.A. AIRPORT   CLOUDY    60  53  77 W8        29.96F
SAN DIEGO      CLOUDY    62  55  77 NW3       29.98F
BURBANK        CLOUDY    58  54  86 S3        29.95F
ONTARIO        CLOUDY    60  53  77 W6        29.95F
RIVERSIDE      CLOUDY    61  53  75 W7        29.96S
PALM SPRINGS   CLEAR     71  53  52 NW10      29.83F
EL CENTRO NAS  CLEAR     72  46  39 SE8       29.80R
IMPERIAL       CLEAR     72  49  44 SE8       29.78R
BLYTHE         CLEAR     75  36  24 SW3       29.81S
NEEDLES        CLEAR     78  34  20 W7        29.81S
$$

NVZ020-UTZ003-291000-
SOUTHERN NEVADA-UTAH

CITY           SKY/WX    TMP DP  RH WIND       PRES   REMARKS
LAS VEGAS      PTCLDY    76  26  15 S6        29.82S
SALT LAKE CITY PTCLDY    58  40  51 SE8       30.05F
$$

NMZ009-TXZ055-291000-
NEW MEXICO-WEST TEXAS

CITY           SKY/WX    TMP DP  RH WIND       PRES   REMARKS
ALBUQUERQUE    PTCLDY    62  18  18 CALM      30.09S
EL PASO        CLOUDY    80   1   5 CALM      30.01R
$$


........................KEY........................
SKY/WX - SKY CONDITION/WEATHER
TMP    - TEMPERATURE IN FAHRENHEIT
DP     - DEW POINT IN FAHRENHEIT
RH     - RELATIVE HUMIDITY IN PERCENT
WIND   - DIRECTION AND SPEED IN MILES PER HOUR (MPH)
VRB    - VARIABLE WIND DIRECTION
PRES   - MEAN SEA LEVEL PRESSURE IN INCHES OF MERCURY
         F - FALLING PRESSURE   R - RISING PRESSURE
         S - STEADY PRESSURE
VSB    - VISIBILITY IN MILES
HX     - HEAT INDEX IN FAHRENHEIT
WCI    - WIND CHILL INDEX IN FAHRENHEIT
TC     - TEMPERATURE IN CELSIUS WHICH IS ALSO KNOWN AS
         TEMPERATURE IN CENTIGRADE
AFB    - AIR FORCE BASE
         LUKE AFB IS LUKE AIR FORCE BASE
         DAVIS-MONTHAN IS DAVIS-MONTHAN AIR FORCE BASE
NAS    - NAVAL AIR STATION
         EL CENTRO NAS IS EL CENTRO NAVAL AIR STATION
N/A    - NOT AVAILABLE





USA.gov is the U.S. government's official web portal to all federal, state and local government web resources and services.